When you browse on this site, cookies collect data to enhance your experience and personalize the content and advertising you see.
Visit our Privacy Policy to learn more. By continuing to use the site, you agree to this use of cookies and data.
  • In United Kingdom
  • List of Countries
  • For 7 days
  • Water Temperature
  • Satellite Maps
  • Weather Map
  • Weather Widgets
  • user-avatar
    Login

    Hourly Weather Qizilcha

    Today, 20 March, Wednesday

    Time Temperature Precipitation Wind Pressure Humidity
    00:00 +10°C° 0 mm 2 mps 698 mmHg 55%
    01:00 +9°C° 0 mm 2 mps 698 mmHg 56%
    02:00 +9°C° 0 mm 2 mps 698 mmHg 58%
    03:00 +9°C° 0 mm 2 mps 698 mmHg 59%
    04:00 +8°C° 0 mm 2 mps 697 mmHg 62%
    05:00 +9°C° 0 mm 2 mps 698 mmHg 62%
    06:00 +9°C° 0 mm 2 mps 698 mmHg 62%
    07:00 +10°C° 0 mm 3 mps 698 mmHg 61%
    08:00 +11°C° 0 mm 3 mps 699 mmHg 56%
    09:00 +12°C° 0 mm 3 mps 699 mmHg 51%
    10:00 +13°C° 0 mm 4 mps 699 mmHg 47%
    11:00 +14°C° 0 mm 4 mps 699 mmHg 45%
    12:00 +14°C° 0 mm 4 mps 699 mmHg 43%
    13:00 +15°C° 0 mm 4 mps 699 mmHg 41%
    14:00 +15°C° 0 mm 4 mps 699 mmHg 41%
    15:00 +16°C° 0 mm 3 mps 699 mmHg 41%
    16:00 +14°C° 0 mm 3 mps 699 mmHg 44%
    17:00 +14°C° 0.2 mm 2 mps 699 mmHg 47%
    18:00 +14°C° 0.2 mm 2 mps 699 mmHg 50%
    19:00 +13°C° 0.2 mm 2 mps 700 mmHg 53%
    20:00 +12°C° 0.1 mm 2 mps 700 mmHg 56%
    21:00 +12°C° 0.1 mm 2 mps 700 mmHg 58%
    22:00 +10°C° 0.1 mm 2 mps 700 mmHg 61%
    23:00 +10°C° 0.4 mm 2 mps 700 mmHg 63%

    Tomorrow, 21 March, Thursday

    Time Temperature Precipitation Wind Pressure Humidity
    00:00 +9°C° 0.4 mm 2 mps 700 mmHg 66%
    01:00 +9°C° 0.4 mm 2 mps 700 mmHg 68%
    02:00 +9°C° 0.8 mm 2 mps 700 mmHg 70%
    03:00 +9°C° 0.8 mm 2 mps 700 mmHg 71%
    04:00 +9°C° 0.8 mm 1 mps 701 mmHg 73%
    05:00 +9°C° 0 mm 1 mps 701 mmHg 72%
    06:00 +9°C° 0 mm 1 mps 701 mmHg 72%
    07:00 +9°C° 0 mm 1 mps 702 mmHg 71%
    08:00 +11°C° 0 mm 1 mps 702 mmHg 64%
    09:00 +12°C° 0 mm 1 mps 702 mmHg 57%
    10:00 +13°C° 0 mm 2 mps 702 mmHg 50%
    11:00 +14°C° 0.1 mm 2 mps 702 mmHg 47%
    12:00 +15°C° 0.1 mm 2 mps 702 mmHg 44%
    13:00 +16°C° 0.1 mm 3 mps 702 mmHg 41%
    14:00 +15°C° 0.3 mm 2 mps 701 mmHg 42%
    15:00 +15°C° 0.3 mm 2 mps 701 mmHg 42%
    16:00 +15°C° 0.3 mm 2 mps 701 mmHg 42%
    17:00 +14°C° 0.1 mm 1 mps 701 mmHg 48%
    18:00 +13°C° 0.1 mm 1 mps 701 mmHg 53%
    19:00 +11°C° 0.1 mm 0 mps 701 mmHg 59%
    20:00 +11°C° 0.1 mm 0 mps 701 mmHg 60%
    21:00 +10°C° 0.1 mm 0 mps 701 mmHg 62%
    22:00 +10°C° 0.1 mm 0 mps 701 mmHg 63%
    23:00 +10°C° 0 mm 0 mps 701 mmHg 64%

    Day after tomorrow, 22 March, Friday

    Time Temperature Precipitation Wind Pressure Humidity
    00:00 +10°C° 0 mm 0 mps 700 mmHg 64%
    01:00 +9°C° 0 mm 0 mps 700 mmHg 65%
    02:00 +9°C° 0 mm 0 mps 700 mmHg 65%
    03:00 +9°C° 0 mm 0 mps 700 mmHg 65%
    04:00 +10°C° 0 mm 1 mps 700 mmHg 66%
    05:00 +10°C° 0.1 mm 1 mps 700 mmHg 64%
    06:00 +11°C° 0.1 mm 1 mps 700 mmHg 63%
    07:00 +11°C° 0.1 mm 1 mps 701 mmHg 62%
    08:00 +12°C° 0.2 mm 1 mps 701 mmHg 60%
    09:00 +12°C° 0.2 mm 1 mps 701 mmHg 59%
    10:00 +13°C° 0.2 mm 1 mps 701 mmHg 57%
    11:00 +13°C° 0.5 mm 1 mps 700 mmHg 59%
    12:00 +12°C° 0.5 mm 1 mps 700 mmHg 61%
    13:00 +12°C° 0.5 mm 1 mps 699 mmHg 63%
    14:00 +13°C° 0.1 mm 1 mps 699 mmHg 61%
    15:00 +13°C° 0.1 mm 1 mps 699 mmHg 59%
    16:00 +14°C° 0.1 mm 1 mps 699 mmHg 57%
    17:00 +13°C° 0 mm 1 mps 699 mmHg 61%
    18:00 +12°C° 0 mm 1 mps 699 mmHg 65%
    19:00 +12°C° 0 mm 1 mps 699 mmHg 70%
    20:00 +11°C° 0.2 mm 1 mps 699 mmHg 71%
    21:00 +11°C° 0.2 mm 1 mps 699 mmHg 72%
    22:00 +10°C° 0.2 mm 2 mps 699 mmHg 73%
    23:00 +11°C° 0.3 mm 1 mps 699 mmHg 75%

    23 March, Saturday

    Time Temperature Precipitation Wind Pressure Humidity
    00:00 +11°C° 0.3 mm 1 mps 698 mmHg 77%
    01:00 +11°C° 0.3 mm 1 mps 698 mmHg 79%
    02:00 +10°C° 0 mm 1 mps 698 mmHg 79%
    03:00 +10°C° 0 mm 1 mps 698 mmHg 80%
    04:00 +10°C° 0 mm 1 mps 698 mmHg 81%
    05:00 +10°C° 0.1 mm 1 mps 698 mmHg 80%
    06:00 +9°C° 0.1 mm 2 mps 698 mmHg 79%
    07:00 +10°C° 0.1 mm 2 mps 698 mmHg 78%
    08:00 +10°C° 1.4 mm 2 mps 698 mmHg 80%
    09:00 +10°C° 1.4 mm 1 mps 699 mmHg 81%
    10:00 +10°C° 1.4 mm 1 mps 699 mmHg 83%
    11:00 +10°C° 0.5 mm 2 mps 699 mmHg 80%
    12:00 +12°C° 0.5 mm 2 mps 699 mmHg 76%
    13:00 +11°C° 0.5 mm 3 mps 699 mmHg 73%
    14:00 +11°C° 0.9 mm 4 mps 699 mmHg 71%
    15:00 +10°C° 0.9 mm 5 mps 699 mmHg 69%
    16:00 +10°C° 0.9 mm 5 mps 699 mmHg 67%
    17:00 +9°C° 0.1 mm 5 mps 699 mmHg 72%
    18:00 +8°C° 0.1 mm 5 mps 700 mmHg 77%
    19:00 +7°C° 0.1 mm 5 mps 700 mmHg 82%
    20:00 +7°C° 0 mm 4 mps 700 mmHg 82%
    21:00 +7°C° 0 mm 4 mps 700 mmHg 81%
    22:00 +7°C° 0 mm 4 mps 700 mmHg 81%
    23:00 +7°C° 0 mm 3 mps 700 mmHg 82%

    24 March, Sunday

    Time Temperature Precipitation Wind Pressure Humidity
    00:00 +7°C° 0 mm 3 mps 700 mmHg 83%
    01:00 +6°C° 0 mm 2 mps 700 mmHg 85%
    02:00 +6°C° 0 mm 2 mps 700 mmHg 85%
    03:00 +7°C° 0 mm 1 mps 700 mmHg 85%
    04:00 +6°C° 0 mm 1 mps 700 mmHg 85%
    05:00 +7°C° 0 mm 1 mps 700 mmHg 81%
    06:00 +7°C° 0 mm 2 mps 700 mmHg 76%
    07:00 +8°C° 0 mm 2 mps 700 mmHg 72%
    08:00 +9°C° 0 mm 2 mps 700 mmHg 64%
    09:00 +12°C° 0 mm 2 mps 700 mmHg 56%
    10:00 +13°C° 0 mm 2 mps 700 mmHg 48%
    11:00 +15°C° 0 mm 2 mps 700 mmHg 44%
    12:00 +16°C° 0 mm 2 mps 700 mmHg 40%
    13:00 +18°C° 0 mm 1 mps 699 mmHg 36%
    14:00 +18°C° 0 mm 1 mps 699 mmHg 36%
    15:00 +18°C° 0 mm 1 mps 699 mmHg 35%
    16:00 +18°C° 0 mm 1 mps 699 mmHg 35%
    17:00 +16°C° 0 mm 2 mps 698 mmHg 42%
    18:00 +14°C° 0 mm 3 mps 698 mmHg 48%
    19:00 +13°C° 0 mm 3 mps 698 mmHg 55%
    20:00 +12°C° 0 mm 3 mps 698 mmHg 57%
    21:00 +12°C° 0 mm 3 mps 698 mmHg 59%
    22:00 +11°C° 0 mm 4 mps 698 mmHg 61%
    23:00 +11°C° 0 mm 4 mps 697 mmHg 60%

    25 March, Monday

    Time Temperature Precipitation Wind Pressure Humidity
    00:00 +11°C° 0 mm 4 mps 697 mmHg 59%
    01:00 +11°C° 0 mm 4 mps 697 mmHg 58%
    02:00 +11°C° 0 mm 4 mps 696 mmHg 57%
    03:00 +11°C° 0 mm 4 mps 696 mmHg 56%
    04:00 +11°C° 0 mm 4 mps 696 mmHg 55%
    05:00 +12°C° 0 mm 4 mps 696 mmHg 53%
    06:00 +12°C° 0 mm 4 mps 696 mmHg 50%
    07:00 +13°C° 0 mm 4 mps 696 mmHg 48%
    08:00 +15°C° 0 mm 4 mps 695 mmHg 41%
    09:00 +18°C° 0 mm 4 mps 695 mmHg 33%
    10:00 +20°C° 0 mm 4 mps 695 mmHg 26%
    11:00 +21°C° 0 mm 4 mps 695 mmHg 25%
    12:00 +22°C° 0 mm 4 mps 694 mmHg 24%
    13:00 +22°C° 0 mm 4 mps 694 mmHg 23%
    14:00 +22°C° 0 mm 4 mps 693 mmHg 24%
    15:00 +22°C° 0 mm 4 mps 693 mmHg 25%
    16:00 +22°C° 0 mm 4 mps 693 mmHg 25%
    17:00 +21°C° 0 mm 5 mps 693 mmHg 27%
    18:00 +20°C° 0 mm 6 mps 694 mmHg 29%
    19:00 +17°C° 0 mm 7 mps 694 mmHg 31%
    20:00 +15°C° 0.2 mm 8 mps 694 mmHg 45%
    21:00 +13°C° 0.2 mm 9 mps 694 mmHg 59%
    22:00 +11°C° 0.2 mm 10 mps 694 mmHg 73%
    23:00 +10°C° 0.1 mm 9 mps 695 mmHg 76%
    Show more